Location: Ferintosh
(52.7647°N, 112.9692°W)
Time: 12:39:53
(UTC+00:00)

S-56A Canister/Altair - Pass Details

Date: 27 May 2024
Orbit: 637 x 2489 km, 38.9° (Epoch: 22 June)

Event Time Altitude Azimuth Distance (km) Brightness Sun altitude
Rises 10:08:02 0° 190° (S) 6,151 - -8.2°
Exits shadow 10:08:41 - 188° (S) 6,030 11.5 -8.1°
Reaches altitude 10° 10:14:22 10° 172° (S) 5,076 11.3 -7.6°
Maximum altitude 10:21:54 16° 141° (SE) 4,323 11.2 -6.9°
Drops below altitude 10° 10:28:41 10° 108° (ESE) 4,508 11.8 -6.2°
Sets 10:33:39 0° 90° (E) 5,180 12.5 -5.7°
